Home > Weather > Barrow > Past weeks

Flag for USA Past Weather in Barrow, Alaska, USA — Yesterday and Last 2 Weeks

Now
40 °F

Low clouds.


Feels Like: 30 °F
Forecast: 36 / 43 °F
Wind: 20 mph from Southeast

Location: Post Rogers Memorial Airport

Current Time: Aug 29, 2016 at 7:27:24 PM

Latest Report: Aug 29, 2016 at 6:53 PM


Visibility: 10 mi

Pressure: 30.58 "Hg

Humidity: 83%

Dew Point: 35 °F

Location of BarrowLocation

Past Weather in Barrow — Graph

°F

Barrow Temperature Yesterday

Maximum temperature yesterday: 48 °F (at 12:01 AM)
Minimum temperature yesterday: 36 °F (at 11:53 PM)
Average temperature yesterday: 39 °F

High & Low Weather Summary for the Past Weeks

 TemperatureHumidityPressure
High62 °F (Aug 27, 4:53 PM)97% (Aug 18, 8:03 PM)30.72 "Hg (Aug 18, 8:03 PM)
Low30 °F (Aug 19, 1:53 AM)53% (Aug 25, 1:53 PM)29.58 "Hg (Aug 18, 11:53 AM)
Average40 °F81%29.98 "Hg
* Reported Aug 14 5:53 PM — Aug 29 5:53 PM, Barrow, Weather by CustomWeather, © 2016

Note: Actual official high and low records may vary slightly from our data, if they occured in-between our weather recording intervals... More about our weather records

Advertising

Barrow Weather History for the Previous 24 Hours

Scroll right to see more
 ConditionsComfort  
Time TempWeatherWind HumidityBarometerVisibility
5:53 PM
Mon, Aug 29
40 °FLow clouds.21 mph83%30.58 "Hg10 mi
4:53 PM40 °FLow clouds.18 mph83%30.60 "Hg10 mi
3:53 PM40 °FLow clouds.17 mph83%30.63 "Hg10 mi
2:53 PM39 °FLow clouds.20 mph82%30.64 "Hg10 mi
1:53 PM39 °FDrizzle. Low clouds.17 mph82%30.65 "Hg10 mi
12:53 PM38 °FDrizzle. Low clouds.16 mph86%30.67 "Hg10 mi
11:53 AM37 °FDrizzle. Low clouds.15 mph86%30.69 "Hg9 mi
10:53 AM37 °FDrizzle. Fog.13 mph86%30.69 "Hg5 mi
9:53 AM36 °FDrizzle. Low clouds.16 mph85%30.70 "Hg10 mi
8:53 AM36 °FDrizzle. Fog.13 mph85%30.70 "Hg5 mi
7:53 AM36 °FLow clouds.14 mph85%30.70 "Hg9 mi
6:53 AM36 °FDrizzle. Low clouds.10 mph85%30.71 "Hg7 mi
5:53 AM36 °FDrizzle. Fog.7 mph85%30.72 "Hg6 mi
4:53 AM36 °FLow clouds.10 mph82%30.72 "Hg10 mi
3:53 AM36 °FLow clouds.9 mph85%30.71 "Hg10 mi
2:53 AM36 °FLow clouds.8 mph85%30.71 "Hg10 mi
1:53 AM36 °FLow clouds.9 mph82%30.70 "Hg10 mi
12:53 AM36 °FDrizzle. Low clouds.10 mph82%30.70 "Hg10 mi
11:53 PM
Sun, Aug 28
36 °FDrizzle. Low clouds.12 mph85%30.69 "Hg7 mi
10:53 PM37 °FLow clouds.9 mph82%30.68 "Hg10 mi
9:53 PM37 °FLow clouds.9 mph79%30.66 "Hg10 mi
8:53 PM37 °FLow clouds.12 mph79%30.64 "Hg10 mi
7:53 PM37 °FLow clouds.12 mph79%30.63 "Hg10 mi
Weather by CustomWeather, © 2016

See weather overviewHow to use our weather pages